Weather reports worldwide

Advertisment
Ile Rousse, France (7753): temperature & dewpoint: 10.09.2019 17:00:00 - 16.09.2019 17:00:00 (CEST)Ile Rousse, France (7753): wind speed & gusts: 10.09.2019 17:00:00 - 16.09.2019 17:00:00 (CEST)Ile Rousse, France (7753): wind direction: 10.09.2019 17:00:00 - 16.09.2019 17:00:00 (CEST)Ile Rousse, France (7753): reduced air pressure: 10.09.2019 17:00:00 - 16.09.2019 17:00:00 (CEST)Ile Rousse, France (7753): visibility: 10.09.2019 17:00:00 - 16.09.2019 17:00:00 (CEST)Ile Rousse, France (7753): precipitation: 10.09.2019 17:00:00 - 16.09.2019 17:00:00 (CEST)
Date & Time tt [°C] td [°C] ff [km/h] ff [kn] fx [km/h] fx [kn] dd ppp [hPa] vv [km] rr [mm]
16.09.2019 17:00:00 25,9 18,6 8 4 19 11 NW 1017,1 25 0,0
16.09.2019 16:00:00 25,8 16,1 8 4 18 10 NW 1017,3 - 0,0
16.09.2019 15:00:00 25,5 19,6 9 5 22 12 NW 1018,0 - 0,0
16.09.2019 14:00:00 25,5 19,6 12 7 22 12 WNW 1018,5 - 0,0
16.09.2019 13:00:00 25,0 19,1 15 8 24 13 W 1019,1 - 0,0
16.09.2019 12:00:00 24,6 19,7 14 8 21 11 W 1019,5 - 0,0
16.09.2019 11:00:00 23,8 16,8 6 4 11 6 WNW 1019,6 - 0,0
16.09.2019 10:00:00 23,1 15,2 3 2 8 4 NW 1019,5 - 0,0
16.09.2019 09:00:00 22,8 15,9 3 1 8 4 SW 1019,3 - 0,0
16.09.2019 08:00:00 22,3 16,1 2 1 6 4 NW 1019,2 - 0,0
16.09.2019 07:00:00 21,8 17,8 3 2 5 3 NNW 1019,1 - 0,0
16.09.2019 06:00:00 21,7 16,4 4 2 6 4 W 1019,1 - 0,0
16.09.2019 05:00:00 21,6 17,4 4 2 9 5 W 1019,4 - 0,0
16.09.2019 04:00:00 21,5 17,5 8 4 12 6 W 1019,7 - 0,0
16.09.2019 03:00:00 21,7 17,5 7 4 13 7 W 1020,1 - 0,0
16.09.2019 02:00:00 22,3 16,3 6 3 10 6 SE 1020,3 - 0,0
16.09.2019 01:00:00 22,3 16,6 7 4 10 6 E 1020,5 - 0,0
16.09.2019 00:00:00 22,4 16,7 4 2 8 5 NNE 1020,5 - 0,0
15.09.2019 23:00:00 22,7 16,3 5 3 10 5 ENE 1020,6 - 0,0
15.09.2019 22:00:00 22,7 16,9 8 4 16 9 SE 1021,0 - 0,0
15.09.2019 21:00:00 22,4 16,4 11 6 14 7 SE 1021,2 - 0,0
15.09.2019 20:00:00 22,9 15,5 3 2 8 4 SE 1021,3 - 0,0
15.09.2019 19:00:00 23,5 17,3 7 4 21 12 WSW 1021,4 - 0,0
15.09.2019 18:00:00 24,3 18,5 16 8 26 14 W 1021,8 - 0,0
15.09.2019 17:00:00 24,2 19,7 15 8 22 12 W 1022,0 - 0,0
15.09.2019 16:00:00 25,7 20,3 14 8 26 14 WNW 1022,3 - 0,0
15.09.2019 15:00:00 25,4 21,1 19 10 31 17 W 1022,7 - 0,0
15.09.2019 14:00:00 24,6 20,3 21 11 33 18 W 1023,0 20 0,0
15.09.2019 13:00:00 25,0 20,0 9 5 17 9 NW 1023,3 - 0,0
15.09.2019 12:00:00 23,9 19,2 7 4 16 8 NNW 1023,6 - 0,0
15.09.2019 11:00:00 23,9 17,9 9 5 16 9 WNW 1024,1 20 0,0
15.09.2019 10:00:00 23,3 18,0 7 4 11 6 NE 1023,8 - 0,0
15.09.2019 09:00:00 22,4 18,0 4 2 16 8 ESE 1023,8 - 0,0
15.09.2019 08:00:00 21,7 17,5 9 5 26 14 W 1023,6 - 0,0
15.09.2019 07:00:00 21,2 18,0 21 11 27 15 WSW 1023,1 - 0,0
15.09.2019 06:00:00 21,9 16,6 10 6 14 8 WSW 1022,6 - 0,0
15.09.2019 05:00:00 21,8 15,4 13 7 23 12 WSW 1023,0 - 0,0
15.09.2019 04:00:00 21,7 16,0 7 4 10 6 WNW 1022,9 - 0,0
15.09.2019 03:00:00 21,8 16,1 5 3 14 8 WSW 1023,1 - 0,0
15.09.2019 02:00:00 22,3 15,6 4 2 19 10 SW 1023,5 - 0,0
15.09.2019 01:00:00 23,1 14,1 13 7 18 10 E 1023,2 - 0,0
15.09.2019 00:00:00 22,8 16,6 12 7 16 8 E 1023,6 - 0,0
14.09.2019 23:00:00 22,9 17,6 4 2 13 7 NE 1024,0 - 0,0
14.09.2019 22:00:00 22,8 15,1 8 4 23 13 ENE 1024,2 - 0,0
14.09.2019 21:00:00 23,7 16,5 15 8 22 12 WSW 1023,8 - 0,0
14.09.2019 20:00:00 24,6 15,8 11 6 21 12 WSW 1023,1 30 0,0
14.09.2019 19:00:00 26,1 15,2 4 2 35 19 NE 1022,4 - 0,0
14.09.2019 18:00:00 25,7 16,0 24 13 38 21 NE 1022,4 - 0,0
14.09.2019 17:00:00 25,9 15,3 22 12 52 28 NE 1022,9 - 0,0
14.09.2019 16:00:00 25,9 15,0 37 20 57 31 NE 1022,7 - 0,0
14.09.2019 15:00:00 29,9 12,8 27 15 41 22 ENE 1023,0 - 0,0
14.09.2019 14:00:00 25,2 17,4 31 17 46 25 NE 1023,8 - 0,0
14.09.2019 13:00:00 27,4 13,7 35 19 48 26 ENE 1024,0 - 0,0
14.09.2019 12:00:00 26,1 14,5 29 16 40 22 NE 1024,7 - 0,0
14.09.2019 11:00:00 25,9 13,4 13 7 22 12 NE 1025,4 - 0,0
14.09.2019 10:00:00 25,0 14,8 9 5 12 7 E 1025,7 - 0,0
14.09.2019 09:00:00 23,7 13,3 6 4 8 5 ESE 1025,7 - 0,0
14.09.2019 08:00:00 22,0 14,4 2 1 8 4 ENE 1025,8 - 0,0
14.09.2019 07:00:00 22,2 14,3 7 4 11 6 E 1025,2 - 0,0
14.09.2019 06:00:00 23,8 12,1 7 4 9 5 WSW 1024,9 - 0,0
14.09.2019 05:00:00 22,6 11,3 2 1 5 3 E 1024,7 - 0,0
14.09.2019 04:00:00 22,1 14,7 3 2 16 8 NNE 1024,6 - 0,0
14.09.2019 03:00:00 21,6 13,5 2 1 10 5 ESE 1024,9 - 0,0
14.09.2019 02:00:00 21,9 16,2 5 3 14 7 WNW 1025,3 - 0,0
14.09.2019 01:00:00 21,6 17,4 4 2 12 7 W 1025,4 - 0,0
14.09.2019 00:00:00 21,6 17,8 7 4 12 6 W 1025,7 - 0,0
13.09.2019 23:00:00 21,7 18,7 5 3 9 5 NW 1025,7 - 0,0
13.09.2019 22:00:00 23,0 17,2 6 4 16 8 WSW 1025,5 - 0,0
13.09.2019 21:00:00 22,0 18,4 14 8 18 10 WSW 1025,6 - 0,0
13.09.2019 20:00:00 22,7 18,9 6 3 15 8 NNE 1025,5 25 0,0
13.09.2019 19:00:00 23,9 17,9 9 5 32 18 E 1025,4 - 0,0
13.09.2019 18:00:00 24,5 18,0 14 7 28 15 E 1025,4 - 0,0
13.09.2019 17:00:00 25,2 17,1 15 8 41 22 NE 1025,5 25 0,0
13.09.2019 16:00:00 25,6 16,7 22 12 44 24 NE 1025,5 - 0,0
13.09.2019 15:00:00 25,6 15,6 29 15 48 26 NE 1025,8 - 0,0
13.09.2019 14:00:00 25,7 14,2 34 18 52 28 NE 1026,2 25 0,0
13.09.2019 13:00:00 26,1 13,2 35 19 51 27 NE 1026,1 - 0,0
13.09.2019 12:00:00 25,9 13,1 40 22 55 30 NE 1026,3 - 0,0
13.09.2019 11:00:00 25,1 13,0 42 23 56 30 NE 1026,2 - 0,0
13.09.2019 10:00:00 25,1 12,0 33 18 41 22 ENE 1026,5 - 0,0
13.09.2019 09:00:00 22,9 11,0 23 13 31 17 E 1026,8 - 0,0
13.09.2019 08:00:00 22,1 11,5 20 11 25 14 E 1026,8 25 0,0
13.09.2019 07:00:00 22,3 11,1 17 9 22 12 E 1027,0 - 0,0
13.09.2019 06:00:00 22,5 11,9 9 5 11 6 E 1027,1 - 0,0
13.09.2019 05:00:00 22,9 11,6 10 5 11 6 ESE 1026,8 25 0,0
13.09.2019 04:00:00 22,9 13,4 0 0 13 7 N 1027,1 - 0,0
13.09.2019 03:00:00 23,7 12,7 10 5 22 12 W 1027,0 - 0,0
13.09.2019 02:00:00 22,6 16,2 14 7 32 17 WSW 1026,8 - 0,0
13.09.2019 01:00:00 25,5 8,0 25 14 37 20 E 1026,1 - 0,0
13.09.2019 00:00:00 23,5 11,2 21 11 36 19 E 1026,0 - 0,0
12.09.2019 23:00:00 23,2 13,1 28 15 36 19 E 1025,7 - 0,0
12.09.2019 22:00:00 22,7 14,0 29 16 36 19 E 1025,7 - 0,0
12.09.2019 21:00:00 22,9 15,5 16 9 27 14 ESE 1026,0 - 0,0
12.09.2019 20:00:00 22,8 16,1 16 9 29 15 E 1026,1 - 0,0
12.09.2019 19:00:00 23,5 17,7 21 11 27 15 E 1025,9 - 0,0
12.09.2019 18:00:00 24,4 19,5 18 10 24 13 E 1026,0 - 0,0
12.09.2019 17:00:00 25,1 19,7 18 10 25 14 ENE 1026,0 - 0,0
12.09.2019 16:00:00 25,4 17,6 15 8 22 12 ENE 1026,3 - 0,0
12.09.2019 15:00:00 26,0 15,7 7 4 13 7 N 1026,5 - 0,0
12.09.2019 14:00:00 25,3 17,5 5 3 19 10 NW 1026,8 - 0,0
12.09.2019 13:00:00 23,4 18,5 10 5 19 10 N 1027,1 - 0,0
12.09.2019 12:00:00 23,3 17,3 13 7 19 10 NNE 1027,3 - 0,0
12.09.2019 11:00:00 23,3 13,2 10 5 17 9 NE 1027,1 25 0,0
12.09.2019 10:00:00 21,7 14,3 5 3 11 6 W 1026,3 - 0,0
12.09.2019 09:00:00 20,2 14,8 6 3 13 7 W 1025,2 - 0,0
12.09.2019 08:00:00 20,6 14,5 5 3 9 5 W 1024,4 - 0,0
12.09.2019 07:00:00 21,3 10,1 8 4 17 9 E 1023,8 - 0,0
12.09.2019 06:00:00 20,8 12,2 16 9 19 10 E 1023,3 - 0,0
12.09.2019 05:00:00 21,2 14,6 6 3 16 8 NE 1023,0 25 0,0
12.09.2019 04:00:00 20,4 16,2 14 8 17 9 E 1022,9 - 0,0
12.09.2019 03:00:00 20,5 16,9 11 6 16 8 SE 1022,8 - 0,0
12.09.2019 02:00:00 20,5 17,3 7 4 17 9 E 1023,4 - 0,0
12.09.2019 01:00:00 20,7 16,7 11 6 17 9 ESE 1022,7 - 0,0
12.09.2019 00:00:00 20,9 17,1 11 6 14 8 ESE 1022,4 - 0,0
11.09.2019 23:00:00 21,5 17,1 5 3 8 5 NNE 1022,3 - 0,0
11.09.2019 22:00:00 22,6 15,4 4 2 9 5 NE 1022,0 - 0,0
11.09.2019 21:00:00 21,6 17,4 8 5 18 10 ENE 1021,8 - 0,0
11.09.2019 20:00:00 22,0 16,7 14 8 21 12 SE 1020,7 - 0,0
11.09.2019 19:00:00 22,2 17,3 12 7 18 10 ENE 1020,5 - 0,0
11.09.2019 18:00:00 23,9 16,9 14 7 27 14 ENE 1020,2 - 0,0
11.09.2019 17:00:00 23,5 16,3 21 12 31 17 NE 1019,9 20 0,0
11.09.2019 16:00:00 23,4 16,4 22 12 33 18 NE 1019,5 - 0,0
11.09.2019 15:00:00 23,8 17,5 21 12 48 26 NE 1019,0 - 0,0
11.09.2019 14:00:00 24,2 18,4 31 17 46 25 NNE 1018,3 - 0,0
11.09.2019 13:00:00 24,1 16,9 37 20 49 26 NE 1017,8 - 0,0
11.09.2019 12:00:00 27,9 11,9 29 16 47 26 E 1017,3 - 0,0
11.09.2019 11:00:00 25,9 15,9 35 19 48 26 ENE 1017,1 30 0,0
11.09.2019 10:00:00 24,3 14,1 31 17 45 25 ENE 1016,8 - 0,0
11.09.2019 09:00:00 22,0 15,4 27 14 40 22 ENE 1016,6 - 0,0
11.09.2019 08:00:00 20,6 14,7 24 13 32 17 E 1016,1 - 0,0
11.09.2019 07:00:00 20,7 12,1 10 5 26 14 E 1015,7 - 0,0
11.09.2019 06:00:00 20,5 12,7 19 10 33 18 ESE 1015,3 - 0,0
11.09.2019 05:00:00 20,8 14,2 18 10 55 30 E 1015,0 20 0,0
11.09.2019 04:00:00 21,0 14,9 41 22 54 29 E 1014,0 - 0,0
11.09.2019 03:00:00 23,0 10,8 29 16 51 27 ESE 1014,0 - 0,0
11.09.2019 02:00:00 22,1 12,9 18 10 59 32 ESE 1013,9 - 0,0
11.09.2019 01:00:00 21,3 15,8 46 25 69 37 E 1013,0 - 0,0
11.09.2019 00:00:00 22,1 14,5 34 19 60 33 E 1012,7 - 0,0
10.09.2019 23:00:00 22,4 14,3 45 24 68 37 E 1012,3 - 0,0
10.09.2019 22:00:00 22,0 14,4 30 16 52 28 E 1012,6 - 0,0
10.09.2019 21:00:00 21,8 14,7 33 18 45 25 E 1012,1 - 0,0
10.09.2019 20:00:00 22,5 14,3 28 15 37 20 E 1011,4 20 0,0
10.09.2019 19:00:00 23,4 14,4 26 14 38 20 E 1011,1 - 0,0
10.09.2019 18:00:00 23,7 16,0 15 8 28 15 ENE 1011,0 - 0,0
10.09.2019 17:00:00 25,0 14,8 4 2 16 9 WNW 1010,9 - 0,0

tt = temperature
td = dewpoint
ff = wind speed
fx = gusts
dd = wind direction
ppp = reduced air pressure
vv = visibility
rr = precipitation

Next stations